LELCLEAL

Guest
Details From LELC - Murcia San Javier
To LEAL - Alicante
Flight Number -
Tags Routegen Generated
Created
Modified
Stats Distance 38 nm / 71 km
Max Altitude 100 ft / 30 m
Waypoints 5
Social Downloads 4
Likes 0
Share

Download

Looking for another format? Having issues loading an existing format? Contact us
Advertisement - Login to hide

Notes

Departing runway 4 LELC. Arriving runway 10 LEAL.

Route

LELC +37.83_+000.74 +38.05_+000.59 +38.27_+000.45 LEAL

ID Type Via Altitude (ft/m) Position (lat/lon) Dist (leg/tot) Name
O LELC APT - 0 / 0 37.78219 / -0.80283 - / 0 nm
+37.83_+000.74 LATLON - 100 / 30 37.83277 / -0.73732 4 / 4 nm
+38.05_+000.59 LATLON - 100 / 30 38.04994 / -0.59394 14 / 19 nm
+38.27_+000.45 LATLON - 100 / 30 38.26711 / -0.45057 14 / 33 nm
O LEAL APT - 0 / 0 38.27982 / -0.54132 4 / 38 nm

Altitude Profile

Advertisement - Login to hide

LELC

Details ICAO LELC (MJV)
Name Murcia San Javier
Region Spain
Timezone Europe/Madrid (UTC+1.0)
Stats Elevation 29 ft / 9 m (AMSL)
Location 37.775000° -0.812500°
Runways 2
Magnetic Variation 0.661° E

METAR

LELC 270100Z AUTO 26002KT CAVOK 08/07 Q1027

Decode

TAF

TAF LELC 262300Z 2700/2724 29003KT CAVOK TX19/2713Z TN08/2706Z BECMG 2711/2713 13010KT BECMG 2714/2716 19010KT BECMG 2719/2721 29004KT

Decode

Departure Runways

ID Width Length Bearing (true/mag) Surface Threshold Overrun Markings Lighting
05L 148 ft / 45 m 5,173 ft / 1,577 m 45.63° / 44.97° ASPHALT 0 ft / 0 m 646 ft / 197 m NONE
05R 148 ft / 45 m 7,611 ft / 2,320 m 45.64° / 44.98° ASPHALT 0 ft / 0 m 600 ft / 183 m PREC-APP EDGE THRESHOLD REIL-OMNI
23L 148 ft / 45 m 7,611 ft / 2,320 m 225.66° / 224.99° ASPHALT 0 ft / 0 m 617 ft / 188 m PREC-APP EDGE THRESHOLD REIL-OMNI
23R 148 ft / 45 m 5,173 ft / 1,577 m 225.64° / 224.98° ASPHALT 0 ft / 0 m 748 ft / 228 m NONE

LEAL

Details ICAO LEAL (ALC)
Name Alicante-Elche "El Altet"
Region Spain
Timezone Europe/Madrid (UTC+1.0)
Stats Elevation 142 ft / 43 m (AMSL)
Location 38.282200° -0.558114°
Runways 1
Magnetic Variation 0.728° E

METAR

LEAL 270100Z 28004KT CAVOK 09/04 Q1027 NOSIG

Decode

TAF

TAF TAF LEAL 262300Z 2700/2724 VRB04KT CAVOK TX18/2712Z TN07/2705Z TEMPO 2700/2706 31010KT BECMG 2710/2712 19010KT BECMG 2717/2719 VRB03KT

Decode

Destination Runways

ID Width Length Bearing (true/mag) Surface Threshold Overrun Markings Lighting
10 148 ft / 45 m 9,828 ft / 2,996 m 100.08° / 99.35° ASPHALT 0 ft / 0 m 0 ft / 0 m PREC-APP CENTERLINE EDGE THRESHOLD CALVERT-ILS REIL-OMNI
28 148 ft / 45 m 9,828 ft / 2,996 m 280.10° / 279.37° ASPHALT 0 ft / 0 m 0 ft / 0 m PREC-APP CENTERLINE EDGE THRESHOLD CALVERT-ILS REIL-OMNI

Approach Navaids

Runway Type Ident Frequency Range Bearing (true/mag) Slope Elevation
10 LOC-ILS IAT 110.30 MHz 18 nm / 33 km 100.09° / 99.36 ° - 29 ft / 9 m (AMSL)
10 GS IAT 110.30 MHz 10 nm / 19 km 100.19° / 99.46 ° 3.00° 129 ft / 39 m (AMSL)
10 DME IAT 110.30 MHz 18 nm / 33 km - - 129 ft / 39 m (AMSL)

Popular Alternatives